﻿測定場所 (Monitoring sites),日付 (Measurement date),時間 (Measurement time),線量率 最大値 (max) μGy/h,線量率 最小値 (min) μGy/h,線量率 平均値 (average) μGy/h,
江戸川 (Edogawa),2013-11-03,23:01～24:00,0.0912,0.0782,0.0836,
江戸川 (Edogawa),2013-11-03,22:01～23:00,0.0880,0.0779,0.0834,
江戸川 (Edogawa),2013-11-03,21:01～22:00,0.0913,0.0758,0.0833,
江戸川 (Edogawa),2013-11-03,20:01～21:00,0.0907,0.0763,0.0833,
江戸川 (Edogawa),2013-11-03,19:01～20:00,0.0869,0.0778,0.0827,
江戸川 (Edogawa),2013-11-03,18:01～19:00,0.0878,0.0761,0.0830,
江戸川 (Edogawa),2013-11-03,17:01～18:00,0.0887,0.0730,0.0828,
江戸川 (Edogawa),2013-11-03,16:01～17:00,0.0892,0.0759,0.0831,
江戸川 (Edogawa),2013-11-03,15:01～16:00,0.0881,0.0791,0.0830,
江戸川 (Edogawa),2013-11-03,14:01～15:00,0.0895,0.0783,0.0831,
江戸川 (Edogawa),2013-11-03,13:01～14:00,0.0889,0.0749,0.0827,
江戸川 (Edogawa),2013-11-03,12:01～13:00,0.0879,0.0759,0.0824,
江戸川 (Edogawa),2013-11-03,11:01～12:00,0.0896,0.0784,0.0835,
江戸川 (Edogawa),2013-11-03,10:01～11:00,0.0888,0.0763,0.0830,
江戸川 (Edogawa),2013-11-03,09:01～10:00,0.0871,0.0773,0.0823,
江戸川 (Edogawa),2013-11-03,08:01～09:00,0.0880,0.0769,0.0822,
江戸川 (Edogawa),2013-11-03,07:01～08:00,0.0896,0.0758,0.0821,
江戸川 (Edogawa),2013-11-03,06:01～07:00,0.0855,0.0764,0.0818,
江戸川 (Edogawa),2013-11-03,05:01～06:00,0.0875,0.0767,0.0822,
江戸川 (Edogawa),2013-11-03,04:01～05:00,0.0856,0.0758,0.0816,
江戸川 (Edogawa),2013-11-03,03:01～04:00,0.0869,0.0762,0.0817,
江戸川 (Edogawa),2013-11-03,02:01～03:00,0.0881,0.0782,0.0820,
江戸川 (Edogawa),2013-11-03,01:01～02:00,0.0884,0.0745,0.0821,
江戸川 (Edogawa),2013-11-03,00:01～01:00,0.0895,0.0752,0.0824,
江戸川 (Edogawa),2013-11-02,23:01～24:00,0.0867,0.0770,0.0822,
江戸川 (Edogawa),2013-11-02,22:01～23:00,0.0866,0.0782,0.0824,
江戸川 (Edogawa),2013-11-02,21:01～22:00,0.0897,0.0785,0.0828,
江戸川 (Edogawa),2013-11-02,20:01～21:00,0.0880,0.0756,0.0826,
江戸川 (Edogawa),2013-11-02,19:01～20:00,0.0872,0.0773,0.0821,
江戸川 (Edogawa),2013-11-02,18:01～19:00,0.0867,0.0769,0.0822,
江戸川 (Edogawa),2013-11-02,17:01～18:00,0.0888,0.0778,0.0830,
江戸川 (Edogawa),2013-11-02,16:01～17:00,0.0916,0.0781,0.0846,
江戸川 (Edogawa),2013-11-02,15:01～16:00,0.0930,0.0833,0.0876,
江戸川 (Edogawa),2013-11-02,14:01～15:00,0.0926,0.0808,0.0856,
江戸川 (Edogawa),2013-11-02,13:01～14:00,0.0887,0.0745,0.0833,
江戸川 (Edogawa),2013-11-02,12:01～13:00,0.0877,0.0765,0.0834,
江戸川 (Edogawa),2013-11-02,11:01～12:00,0.0895,0.0760,0.0835,
江戸川 (Edogawa),2013-11-02,10:01～11:00,0.0874,0.0774,0.0825,
江戸川 (Edogawa),2013-11-02,09:01～10:00,0.0883,0.0779,0.0831,
江戸川 (Edogawa),2013-11-02,08:01～09:00,0.0869,0.0763,0.0819,
江戸川 (Edogawa),2013-11-02,07:01～08:00,0.0875,0.0779,0.0823,
江戸川 (Edogawa),2013-11-02,06:01～07:00,0.0883,0.0773,0.0821,
江戸川 (Edogawa),2013-11-02,05:01～06:00,0.0883,0.0745,0.0822,
江戸川 (Edogawa),2013-11-02,04:01～05:00,0.0886,0.0772,0.0826,
江戸川 (Edogawa),2013-11-02,03:01～04:00,0.0876,0.0767,0.0825,
江戸川 (Edogawa),2013-11-02,02:01～03:00,0.0890,0.0767,0.0822,
江戸川 (Edogawa),2013-11-02,01:01～02:00,0.0873,0.0773,0.0821,
江戸川 (Edogawa),2013-11-02,00:01～01:00,0.0889,0.0772,0.0818,
江戸川 (Edogawa),2013-11-01,23:01～24:00,0.0877,0.0770,0.0819,
江戸川 (Edogawa),2013-11-01,22:01～23:00,0.0874,0.0770,0.0822,
江戸川 (Edogawa),2013-11-01,21:01～22:00,0.0869,0.0777,0.0821,
江戸川 (Edogawa),2013-11-01,20:01～21:00,0.0877,0.0780,0.0823,
江戸川 (Edogawa),2013-11-01,19:01～20:00,0.0896,0.0769,0.0821,
江戸川 (Edogawa),2013-11-01,18:01～19:00,0.0885,0.0788,0.0832,
江戸川 (Edogawa),2013-11-01,17:01～18:00,0.0871,0.0755,0.0824,
江戸川 (Edogawa),2013-11-01,16:01～17:00,0.0884,0.0775,0.0827,
江戸川 (Edogawa),2013-11-01,15:01～16:00,0.0866,0.0775,0.0827,
江戸川 (Edogawa),2013-11-01,14:01～15:00,0.0896,0.0783,0.0830,
江戸川 (Edogawa),2013-11-01,13:01～14:00,0.0883,0.0774,0.0832,
江戸川 (Edogawa),2013-11-01,12:01～13:00,0.0881,0.0770,0.0824,
江戸川 (Edogawa),2013-11-01,11:01～12:00,0.0883,0.0760,0.0828,
江戸川 (Edogawa),2013-11-01,10:01～11:00,0.0884,0.0764,0.0831,
江戸川 (Edogawa),2013-11-01,09:01～10:00,0.0872,0.0775,0.0825,
江戸川 (Edogawa),2013-11-01,08:01～09:00,0.0884,0.0770,0.0822,
江戸川 (Edogawa),2013-11-01,07:01～08:00,0.0875,0.0746,0.0817,
江戸川 (Edogawa),2013-11-01,06:01～07:00,0.0869,0.0761,0.0814,
江戸川 (Edogawa),2013-11-01,05:01～06:00,0.0902,0.0744,0.0828,
江戸川 (Edogawa),2013-11-01,04:01～05:00,0.0848,0.0764,0.0813,
江戸川 (Edogawa),2013-11-01,03:01～04:00,0.0881,0.0769,0.0820,
江戸川 (Edogawa),2013-11-01,02:01～03:00,0.0875,0.0772,0.0823,
江戸川 (Edogawa),2013-11-01,01:01～02:00,0.0885,0.0748,0.0819,
江戸川 (Edogawa),2013-11-01,00:01～01:00,0.0881,0.0758,0.0824,
江戸川 (Edogawa),2013-10-31,23:01～24:00,0.0878,0.0780,0.0824,
江戸川 (Edogawa),2013-10-31,22:01～23:00,0.0877,0.0773,0.0823,
江戸川 (Edogawa),2013-10-31,21:01～22:00,0.0878,0.0768,0.0821,
江戸川 (Edogawa),2013-10-31,20:01～21:00,0.0868,0.0768,0.0822,
江戸川 (Edogawa),2013-10-31,19:01～20:00,0.0898,0.0770,0.0823,
江戸川 (Edogawa),2013-10-31,18:01～19:00,0.0888,0.0758,0.0820,
江戸川 (Edogawa),2013-10-31,17:01～18:00,0.0866,0.0782,0.0820,
江戸川 (Edogawa),2013-10-31,16:01～17:00,0.0895,0.0769,0.0825,
江戸川 (Edogawa),2013-10-31,15:01～16:00,0.0878,0.0753,0.0820,
江戸川 (Edogawa),2013-10-31,14:01～15:00,0.0895,0.0759,0.0825,
江戸川 (Edogawa),2013-10-31,13:01～14:00,0.0882,0.0775,0.0830,
江戸川 (Edogawa),2013-10-31,12:01～13:00,0.0884,0.0779,0.0825,
江戸川 (Edogawa),2013-10-31,11:01～12:00,0.0887,0.0755,0.0824,
江戸川 (Edogawa),2013-10-31,10:01～11:00,0.0883,0.0781,0.0825,
江戸川 (Edogawa),2013-10-31,09:01～10:00,0.0892,0.0765,0.0827,
江戸川 (Edogawa),2013-10-31,08:01～09:00,0.0863,0.0765,0.0817,
江戸川 (Edogawa),2013-10-31,07:01～08:00,0.0882,0.0776,0.0821,
江戸川 (Edogawa),2013-10-31,06:01～07:00,0.0873,0.0763,0.0813,
江戸川 (Edogawa),2013-10-31,05:01～06:00,0.0853,0.0771,0.0811,
江戸川 (Edogawa),2013-10-31,04:01～05:00,0.0883,0.0768,0.0812,
江戸川 (Edogawa),2013-10-31,03:01～04:00,0.0862,0.0747,0.0806,
江戸川 (Edogawa),2013-10-31,02:01～03:00,0.0873,0.0761,0.0813,
江戸川 (Edogawa),2013-10-31,01:01～02:00,0.0872,0.0780,0.0817,
江戸川 (Edogawa),2013-10-31,00:01～01:00,0.0852,0.0772,0.0816,
江戸川 (Edogawa),2013-10-30,23:01～24:00,0.0849,0.0756,0.0809,
江戸川 (Edogawa),2013-10-30,22:01～23:00,0.0857,0.0753,0.0813,
江戸川 (Edogawa),2013-10-30,21:01～22:00,0.0883,0.0771,0.0824,
江戸川 (Edogawa),2013-10-30,20:01～21:00,0.0860,0.0766,0.0815,
江戸川 (Edogawa),2013-10-30,19:01～20:00,0.0876,0.0776,0.0818,
江戸川 (Edogawa),2013-10-30,18:01～19:00,0.0864,0.0768,0.0810,
江戸川 (Edogawa),2013-10-30,17:01～18:00,0.0866,0.0771,0.0813,
江戸川 (Edogawa),2013-10-30,16:01～17:00,0.0862,0.0763,0.0810,
江戸川 (Edogawa),2013-10-30,15:01～16:00,0.0850,0.0761,0.0810,
江戸川 (Edogawa),2013-10-30,14:01～15:00,0.0880,0.0761,0.0814,
江戸川 (Edogawa),2013-10-30,13:01～14:00,0.0865,0.0759,0.0811,
江戸川 (Edogawa),2013-10-30,12:01～13:00,0.0865,0.0745,0.0811,
江戸川 (Edogawa),2013-10-30,11:01～12:00,0.0861,0.0772,0.0814,
江戸川 (Edogawa),2013-10-30,10:01～11:00,0.0865,0.0768,0.0814,
江戸川 (Edogawa),2013-10-30,09:01～10:00,0.0875,0.0779,0.0816,
江戸川 (Edogawa),2013-10-30,08:01～09:00,0.0869,0.0749,0.0814,
江戸川 (Edogawa),2013-10-30,07:01～08:00,0.0862,0.0764,0.0817,
江戸川 (Edogawa),2013-10-30,06:01～07:00,0.0865,0.0743,0.0805,
江戸川 (Edogawa),2013-10-30,05:01～06:00,0.0868,0.0771,0.0810,
江戸川 (Edogawa),2013-10-30,04:01～05:00,0.0844,0.0757,0.0812,
江戸川 (Edogawa),2013-10-30,03:01～04:00,0.0896,0.0773,0.0823,
江戸川 (Edogawa),2013-10-30,02:01～03:00,0.0888,0.0766,0.0812,
江戸川 (Edogawa),2013-10-30,01:01～02:00,0.0878,0.0770,0.0805,
江戸川 (Edogawa),2013-10-30,00:01～01:00,0.0868,0.0741,0.0808,
江戸川 (Edogawa),2013-10-29,23:01～24:00,0.0864,0.0751,0.0802,
江戸川 (Edogawa),2013-10-29,22:01～23:00,0.0857,0.0754,0.0814,
江戸川 (Edogawa),2013-10-29,21:01～22:00,0.0856,0.0764,0.0808,
江戸川 (Edogawa),2013-10-29,20:01～21:00,0.0877,0.0756,0.0812,
江戸川 (Edogawa),2013-10-29,19:01～20:00,0.0852,0.0764,0.0799,
江戸川 (Edogawa),2013-10-29,18:01～19:00,0.0863,0.0727,0.0800,
江戸川 (Edogawa),2013-10-29,17:01～18:00,0.0856,0.0764,0.0805,
江戸川 (Edogawa),2013-10-29,16:01～17:00,0.0865,0.0749,0.0815,
江戸川 (Edogawa),2013-10-29,15:01～16:00,0.0881,0.0780,0.0833,
江戸川 (Edogawa),2013-10-29,14:01～15:00,0.0915,0.0810,0.0864,
江戸川 (Edogawa),2013-10-29,13:01～14:00,0.0915,0.0791,0.0855,
江戸川 (Edogawa),2013-10-29,12:01～13:00,0.0889,0.0782,0.0836,
江戸川 (Edogawa),2013-10-29,11:01～12:00,0.0861,0.0764,0.0821,
江戸川 (Edogawa),2013-10-29,10:01～11:00,0.0874,0.0745,0.0825,
江戸川 (Edogawa),2013-10-29,09:01～10:00,0.0911,0.0778,0.0826,
江戸川 (Edogawa),2013-10-29,08:01～09:00,0.0914,0.0779,0.0824,
江戸川 (Edogawa),2013-10-29,07:01～08:00,0.0871,0.0771,0.0821,
江戸川 (Edogawa),2013-10-29,06:01～07:00,0.0880,0.0768,0.0818,
江戸川 (Edogawa),2013-10-29,05:01～06:00,0.0872,0.0766,0.0819,
江戸川 (Edogawa),2013-10-29,04:01～05:00,0.0885,0.0762,0.0823,
江戸川 (Edogawa),2013-10-29,03:01～04:00,0.0879,0.0755,0.0822,
江戸川 (Edogawa),2013-10-29,02:01～03:00,0.0879,0.0764,0.0818,
江戸川 (Edogawa),2013-10-29,01:01～02:00,0.0872,0.0735,0.0811,
江戸川 (Edogawa),2013-10-29,00:01～01:00,0.0877,0.0757,0.0807,
江戸川 (Edogawa),2013-10-28,23:01～24:00,0.0852,0.0764,0.0813,
江戸川 (Edogawa),2013-10-28,22:01～23:00,0.0875,0.0748,0.0806,
江戸川 (Edogawa),2013-10-28,21:01～22:00,0.0891,0.0765,0.0815,
江戸川 (Edogawa),2013-10-28,20:01～21:00,0.0880,0.0745,0.0817,
江戸川 (Edogawa),2013-10-28,19:01～20:00,0.0884,0.0753,0.0816,
江戸川 (Edogawa),2013-10-28,18:01～19:00,0.0886,0.0761,0.0815,
江戸川 (Edogawa),2013-10-28,17:01～18:00,0.0878,0.0746,0.0816,
江戸川 (Edogawa),2013-10-28,16:01～17:00,0.0858,0.0762,0.0816,
江戸川 (Edogawa),2013-10-28,15:01～16:00,0.0867,0.0769,0.0814,
江戸川 (Edogawa),2013-10-28,14:01～15:00,0.0903,0.0765,0.0820,
江戸川 (Edogawa),2013-10-28,13:01～14:00,0.0884,0.0780,0.0825,
江戸川 (Edogawa),2013-10-28,12:01～13:00,0.0883,0.0766,0.0821,
江戸川 (Edogawa),2013-10-28,11:01～12:00,0.0896,0.0767,0.0818,
江戸川 (Edogawa),2013-10-28,10:01～11:00,0.0871,0.0777,0.0825,
江戸川 (Edogawa),2013-10-28,09:01～10:00,0.0866,0.0757,0.0818,
江戸川 (Edogawa),2013-10-28,08:01～09:00,0.0886,0.0751,0.0820,
江戸川 (Edogawa),2013-10-28,07:01～08:00,0.0873,0.0759,0.0817,
江戸川 (Edogawa),2013-10-28,06:01～07:00,0.0870,0.0772,0.0819,
江戸川 (Edogawa),2013-10-28,05:01～06:00,0.0856,0.0776,0.0816,
江戸川 (Edogawa),2013-10-28,04:01～05:00,0.0875,0.0754,0.0816,
江戸川 (Edogawa),2013-10-28,03:01～04:00,0.0876,0.0740,0.0815,
江戸川 (Edogawa),2013-10-28,02:01～03:00,0.0865,0.0761,0.0813,
江戸川 (Edogawa),2013-10-28,01:01～02:00,0.0861,0.0743,0.0810,
江戸川 (Edogawa),2013-10-28,00:01～01:00,0.0872,0.0741,0.0814,
